{"data":{"norad_id":64432,"intl_designator":"2025-129W","name":"STARLINK-34506","alt_names":[],"object_type":"PAYLOAD","status":"ACTIVE","operator":null,"country":"US","launch_date":"2025-06-17","launch_site_code":"AFWTR","launch_vehicle":null,"mission":null,"orbit_class":"UNKNOWN","rcs_meters":null,"size_class":null,"mass_kg":null,"dimensions":null,"purposes":["comms"],"wikipedia_slug":null,"has_3d_model":false,"image_url":null,"decayed_at":null,"tle_current":{"epoch":"2026-05-25T00:13:57.927072Z","epoch_age_seconds":77328,"freshness":"FRESH","line1":"1 64432U 25129W   26145.00969823  .00001722  00000+0  15201-3 0  9996","line2":"2 64432  70.0004 241.8481 0003335 268.3936  91.6841 14.98344923 52666","mean_motion":14.98344923,"eccentricity":0.0003335,"inclination_deg":70.0004,"raan_deg":241.8481,"arg_perigee_deg":268.3936,"mean_anomaly_deg":91.6841,"bstar":0.00015201,"rev_number":5266,"period_min":96.106041933043,"perigee_km":569.69186924209,"apogee_km":574.32761711979,"semimajor_km":6950.1467431809,"source":"CELESTRAK","updated_at":"2026-05-25T13:38:20.443780Z"}}}